Time,TemperatureF,DewpointF,PressureIn,WindDirection,WindDirectionDegrees,WindSpeedMPH,WindSpeedGustMPH,Humidity,HourlyPrecipIn,Conditions,Clouds,dailyrainin,SoftwareType,DateUTC
2013-05-10 00:00:00,62.9,51.4,30.08,WSW,237,2.0,2.0,66,0.00,,CLR,-99.99,VWS V12.06,2013-05-10 04:00:00,
2013-05-10 00:02:00,54.5,49.8,30.06,ESE,111,0.0,3.0,84,0.00,,CLR,-99.99,VWS V12.06,2013-05-10 04:02:00,
2013-05-10 00:30:00,63.5,50.7,30.07,West,265,2.0,3.0,63,0.00,,CLR,-99.99,VWS V12.06,2013-05-10 04:30:00,
2013-05-10 00:32:00,63.7,50.9,30.05,West,259,2.0,5.0,63,0.00,,CLR,-99.99,VWS V12.06,2013-05-10 04:32:00,
2013-05-10 01:00:00,64.7,49.1,30.07,WNW,283,2.0,3.0,57,0.00,,CLR,-99.99,VWS V12.06,2013-05-10 05:00:00,
2013-05-10 01:02:00,53.4,49.3,30.06,NW,325,0.0,0.0,86,0.00,,CLR,-99.99,VWS V12.06,2013-05-10 05:02:00,
2013-05-10 01:30:00,64.2,49.1,30.07,WSW,249,4.0,6.0,58,0.00,,CLR,-99.99,VWS V12.06,2013-05-10 05:30:00,
2013-05-10 02:00:00,63.8,49.2,30.06,WSW,246,7.0,7.0,59,0.00,,BKN100,-99.99,VWS V12.06,2013-05-10 06:00:00,
2013-05-10 02:30:00,63.6,49.0,30.05,SW,230,3.0,3.0,59,0.00,,BKN100,-99.99,VWS V12.06,2013-05-10 06:30:00,
2013-05-10 03:00:00,63.5,48.9,30.05,WSW,258,3.0,3.0,59,0.00,,OVC100,-99.99,VWS V12.06,2013-05-10 07:00:00,
2013-05-10 03:30:00,63.2,49.1,30.04,SSE,159,1.0,1.0,60,0.00,,OVC100,-99.99,VWS V12.06,2013-05-10 07:30:00,
2013-05-10 04:00:00,61.6,49.3,30.03,SW,221,1.0,2.0,64,0.00,,OVC120,-99.99,VWS V12.06,2013-05-10 08:00:00,
2013-05-10 04:30:00,61.7,49.4,30.03,SW,221,2.0,2.0,64,0.00,,OVC120,-99.99,VWS V12.06,2013-05-10 08:30:00,
2013-05-10 05:00:00,63.2,51.2,30.02,West,262,6.0,6.0,65,0.00,,CLR,-99.99,VWS V12.06,2013-05-10 09:00:00,
2013-05-10 05:30:00,62.7,50.8,30.02,WSW,244,5.0,5.0,65,0.00,,CLR,-99.99,VWS V12.06,2013-05-10 09:30:00,
2013-05-10 06:00:00,62.6,51.1,30.01,WSW,257,10.0,10.0,66,0.00,,CLR,-99.99,VWS V12.06,2013-05-10 10:00:00,
2013-05-10 06:30:00,62.9,51.8,30.02,West,279,15.0,15.0,67,0.00,,CLR,-99.99,VWS V12.06,2013-05-10 10:30:00,
2013-05-10 07:00:00,62.6,53.1,30.02,SW,232,6.0,11.0,71,0.00,,CLR,-99.99,VWS V12.06,2013-05-10 11:00:00,
2013-05-10 07:30:00,63.1,53.6,30.02,SW,223,3.0,3.0,71,0.00,,CLR,-99.99,VWS V12.06,2013-05-10 11:30:00,
2013-05-10 08:00:00,64.2,54.2,30.02,SW,232,0.0,0.0,70,0.00,,CLR,-99.99,VWS V12.06,2013-05-10 12:00:00,
2013-05-10 08:30:00,66.3,55.8,30.02,SW,234,0.0,0.0,69,0.00,,CLR,-99.99,VWS V12.06,2013-05-10 12:30:00,
2013-05-10 09:00:00,67.4,54.8,30.01,SSW,195,1.0,2.0,64,0.00,,CLR,-99.99,VWS V12.06,2013-05-10 13:00:00,
2013-05-10 09:30:00,67.0,55.3,30.01,SSW,206,0.0,0.0,66,0.00,,CLR,-99.99,VWS V12.06,2013-05-10 13:30:00,
2013-05-10 10:00:00,68.4,55.3,30.02,South,171,2.0,2.0,63,0.00,,CLR,-99.99,VWS V12.06,2013-05-10 14:00:00,
2013-05-10 10:30:00,68.5,56.7,30.01,South,173,1.0,2.0,66,0.00,,CLR,-99.99,VWS V12.06,2013-05-10 14:30:00,
2013-05-10 11:00:00,69.4,54.9,30.01,South,180,2.0,2.0,60,0.00,,CLR,-99.99,VWS V12.06,2013-05-10 15:00:00,
2013-05-10 11:30:00,70.7,54.2,30.01,South,188,4.0,6.0,56,0.00,,CLR,-99.99,VWS V12.06,2013-05-10 15:30:00,
2013-05-10 12:00:00,70.8,55.3,30.01,South,175,7.0,7.0,58,0.00,,SCT041,-99.99,VWS V12.06,2013-05-10 16:00:00,
2013-05-10 12:30:00,71.4,55.4,30.00,SSW,199,7.0,7.0,57,0.00,,SCT041,-99.99,VWS V12.06,2013-05-10 16:30:00,
2013-05-10 13:00:00,72.8,55.7,29.99,SW,217,4.0,4.0,55,0.00,,CLR,-99.99,VWS V12.06,2013-05-10 17:00:00,
2013-05-10 13:30:00,73.5,55.3,29.98,SSW,210,6.0,6.0,53,0.00,,CLR,-99.99,VWS V12.06,2013-05-10 17:30:00,
2013-05-10 14:00:00,73.2,57.5,29.97,SW,229,7.0,8.0,58,0.00,,SCT050,-99.99,VWS V12.06,2013-05-10 18:00:00,
2013-05-10 14:30:00,71.6,56.5,29.95,SW,221,6.0,10.0,59,0.00,,SCT050,-99.99,VWS V12.06,2013-05-10 18:30:00,
2013-05-10 15:00:00,71.8,58.1,29.94,SSW,205,10.0,10.0,62,0.00,,SCT047,-99.99,VWS V12.06,2013-05-10 19:00:00,
2013-05-10 15:30:00,71.6,57.9,29.93,SW,225,7.0,8.0,62,0.00,,SCT047,-99.99,VWS V12.06,2013-05-10 19:30:00,
2013-05-10 16:00:00,70.3,58.0,29.92,SSW,200,8.0,9.0,65,0.00,,OVC100,-99.99,VWS V12.06,2013-05-10 20:00:00,
2013-05-10 16:30:00,69.8,57.5,29.92,South,187,4.0,10.0,65,0.00,,OVC100,-99.99,VWS V12.06,2013-05-10 20:30:00,
2013-05-10 17:00:00,69.1,57.3,29.91,SW,218,6.0,7.0,66,0.00, -RA,-RA,-99.99,VWS V12.06,2013-05-10 21:00:00,
2013-05-10 17:30:00,69.0,57.6,29.92,SW,232,3.0,3.0,67,0.00, -RA,-RA,-99.99,VWS V12.06,2013-05-10 21:30:00,
2013-05-10 18:00:00,68.0,57.1,29.92,WSW,246,4.0,6.0,68,0.00,,BKN100,-99.99,VWS V12.06,2013-05-10 22:00:00,
2013-05-10 18:02:00,62.5,56.9,29.91,SW,235,5.0,5.0,82,0.00,,BKN100,-99.99,VWS V12.06,2013-05-10 22:02:00,
2013-05-10 18:30:00,67.3,57.2,29.91,SW,223,5.0,7.0,70,0.00,,BKN100,-99.99,VWS V12.06,2013-05-10 22:30:00,
2013-05-10 19:00:00,66.5,57.2,29.92,SW,224,5.0,6.0,72,0.00, RA,RA,-99.99,VWS V12.06,2013-05-10 23:00:00,
2013-05-10 19:02:00,66.5,57.2,29.90,West,279,4.0,9.0,72,0.00, RA,RA,-99.99,VWS V12.06,2013-05-10 23:02:00,
2013-05-10 19:30:00,65.9,57.4,29.92,West,280,8.0,8.0,74,0.00, RA,RA,-99.99,VWS V12.06,2013-05-10 23:30:00,
2013-05-10 20:00:00,64.3,57.0,29.93,WSW,242,2.0,3.0,77,0.00, -RA,-RA,-99.99,VWS V12.06,2013-05-11 00:00:00,
2013-05-10 20:30:00,62.9,57.3,29.92,SSW,205,3.0,4.0,82,0.00, RA,RA,-99.99,VWS V12.06,2013-05-11 00:30:00,
2013-05-10 21:00:00,62.3,57.4,29.93,SW,227,1.0,3.0,84,0.00,,OVC095,-99.99,VWS V12.06,2013-05-11 01:00:00,
2013-05-10 21:30:00,62.4,57.5,29.93,WSW,243,2.0,3.0,84,0.00,,OVC095,-99.99,VWS V12.06,2013-05-11 01:30:00,
2013-05-10 22:00:00,62.2,57.3,29.91,SSW,199,0.0,0.0,84,0.00, BR,,-99.99,VWS V12.06,2013-05-11 02:00:00,
2013-05-10 22:30:00,61.6,57.4,29.93,WSW,251,4.0,4.0,86,0.00, BR,,-99.99,VWS V12.06,2013-05-11 02:30:00,
2013-05-10 23:00:00,61.3,57.4,29.92,SW,222,2.0,3.0,87,0.00, BR,,-99.99,VWS V12.06,2013-05-11 03:00:00,
2013-05-10 23:30:00,61.1,57.5,29.92,SSW,213,2.0,2.0,88,0.00, BR,,-99.99,VWS V12.06,2013-05-11 03:30:00,